Temperature
10 9 9 8 8 8 8 8 8 8 8 7 7 7 6 6 6 6 6 6 6 6 6 6 6 6 6 6 6 7 8 9 10 10 10 10 10 9 10 11 11 11 11
10 9 9 8 8 8 8 8 8 8 8 7 7 7 6 6 6 6 6 6 5 5 5 5 5 5 5 5 6 6 8 9 9 9 9 9 9 8 8 9 9 9 10
10 9 8 8 8 8 8 8 8 8 8 7 7 7 6 6 6 5 5 5 5 5 5 5 5 5 5 5 5 6 7 8 8 8 8 8 8 7 6 7 7 8 9
9 9 8 8 8 8 8 8 8 8 8 8 7 7 6 6 6 5 5 5 5 5 5 5 5 5 5 5 5 6 7 8 8 8 8 7 7 5 5 5 6 6 7
9 8 8 8 8 8 8 8 8 8 8 8 7 7 7 6 6 6 5 5 5 5 5 5 5 5 5 5 6 7 7 8 8 8 8 7 6 5 4 4 4 5 5
9 8 8 8 8 8 8 8 8 8 8 8 7 7 7 7 6 6 6 5 5 5 5 5 5 5 5 5 6 7 7 7 7 7 7 7 6 5 4 4 4 4 4
9 8 8 8 8 8 8 8 8 8 8 8 8 7 7 7 6 6 5 5 5 5 5 5 5 5 5 5 6 6 7 7 7 6 6 6 6 5 4 4 4 3 3
9 8 8 8 8 8 8 8 8 8 8 8 7 7 7 6 6 6 5 5 5 5 5 5 5 5 5 5 5 6 6 6 6 6 6 6 5 4 3 3 3 3 3
8 8 8 7 8 8 8 8 8 8 8 7 7 7 7 6 6 5 5 5 5 5 5 5 5 5 5 5 5 5 5 5 5 5 5 5 5 4 3 2 3 3 3
9 8 8 7 7 7 7 8 7 7 7 7 7 7 6 6 6 5 5 5 5 5 5 5 4 4 4 4 4 4 4 4 4 4 4 4 4 3 2 2 2 2 2
9 8 8 7 8 8 7 7 7 7 7 7 7 6 6 6 5 5 5 5 4 4 4 4 4 4 4 4 4 3 3 3 3 3 3 3 2 2 1 1 0 1 1
10 9 8 8 8 8 7 7 7 7 7 7 6 6 6 5 5 5 5 4 4 4 4 4 4 3 3 3 3 3 2 2 2 2 1 1 1 1 -0 -1 -1 -1 -1
11 10 9 8 8 8 8 7 7 7 7 7 6 6 6 5 5 5 4 4 4 4 3 3 3 3 3 2 2 2 1 1 0 0 0 0 0 -0 -1 -2 -2 -2 -2
11 11 10 9 8 8 8 7 7 7 7 6 6 6 6 5 5 5 4 4 4 3 3 3 3 2 2 2 1 1 0 -0 -1 -1 -1 -1 -1 -1 -2 -2 -2 -2 -2
12 11 11 9 9 8 8 7 7 7 7 6 6 6 5 5 5 5 4 4 3 3 3 3 2 2 1 1 0 -0 -1 -1 -2 -2 -2 -2 -2 -2 -2 -3 -3 -3 -3
13 12 11 10 9 8 8 7 7 7 7 6 6 6 5 5 5 4 4 4 3 3 2 2 2 1 1 0 -0 -1 -1 -2 -2 -2 -3 -3 -2 -3 -3 -3 -3 -4 -3
14 13 11 11 9 8 8 7 7 7 6 6 6 6 5 5 5 4 4 3 3 3 2 2 1 1 0 -0 -1 -1 -1 -2 -2 -3 -3 -3 -3 -3 -3 -3 -4 -4 -4
14 13 12 11 10 9 8 7 7 7 6 6 6 5 5 5 5 4 4 3 3 2 2 1 1 -0 -1 -1 -1 -1 -2 -2 -2 -2 -3 -3 -4 -4 -4 -4 -4 -4 -4
14 13 12 12 10 9 8 8 7 7 6 6 6 5 5 5 4 4 3 3 2 2 1 1 0 -0 -1 -2 -2 -2 -2 -2 -2 -2 -3 -3 -4 -4 -4 -5 -5 -5 -5
14 13 12 12 11 10 8 8 7 7 6 6 6 6 5 5 4 4 3 3 2 2 1 1 -0 -1 -1 -2 -2 -2 -2 -2 -2 -2 -3 -3 -4 -4 -5 -5 -5 -5 -5
14 13 13 12 11 10 9 8 8 7 7 6 6 6 5 5 4 4 3 3 2 2 1 0 -0 -1 -2 -3 -3 -3 -3 -2 -2 -3 -3 -3 -4 -4 -5 -5 -5 -6 -6
15 14 14 13 12 11 10 9 9 8 7 7 6 6 5 5 4 4 3 3 2 2 1 1 -0 -1 -2 -3 -4 -5 -4 -3 -3 -3 -3 -4 -4 -4 -5 -5 -5 -6 -6
15 15 15 14 13 12 11 10 8 8 7 7 7 7 6 5 5 4 4 3 2 2 1 1 -0 -1 -2 -3 -4 -5 -5 -3 -4 -5 -4 -4 -4 -5 -5 -5 -6 -6 -6
16 16 15 15 14 13 12 11 10 9 9 9 8 8 7 6 5 4 4 3 2 2 1 1 -0 -1 -2 -3 -4 -5 -5 -6 -6 -6 -5 -5 -5 -5 -5 -6 -6 -6 -6
16 16 16 15 14 14 13 12 11 10 10 9 7 7 7 7 6 5 4 3 3 2 2 1 -0 -1 -2 -2 -4 -5 -6 -6 -7 -8 -7 -6 -5 -5 -5 -6 -6 -6 -6
17 17 16 16 15 14 14 13 12 12 11 9 8 7 7 7 6 6 5 4 3 2 2 1 0 -1 -2 -2 -3 -5 -6 -6 -7 -7 -7 -7 -6 -6 -6 -6 -6 -6 -7
Wind_Speed
12 13 12 12 11 10 9 9 10 10 11 12 13 13 14 15 16 17 17 18 19 19 20 21 22 22 23 23 24 24 25 25 25 24 23 23 25 26 26 27 26 22 27
15 15 14 13 12 10 10 9 10 10 11 11 12 12 13 14 15 16 16 17 18 18 19 20 20 21 21 22 22 23 23 23 23 22 21 20 23 25 26 26 26 24 26
16 15 16 14 12 11 10 9 9 10 10 10 11 11 12 13 14 14 15 16 16 17 18 18 19 20 20 21 21 22 22 21 21 20 19 18 19 24 25 25 25 25 26
16 15 15 15 13 12 10 10 9 9 9 10 10 10 11 12 12 13 14 15 15 16 16 17 18 18 19 20 20 21 21 20 19 18 16 17 17 22 24 24 24 25 25
16 15 15 15 14 12 11 10 9 9 9 9 9 10 10 11 11 12 13 13 14 14 15 16 16 17 18 19 19 20 20 19 17 16 15 16 16 22 23 23 24 24 24
17 16 15 16 14 13 12 11 10 9 9 9 9 9 9 10 10 11 11 12 12 13 14 14 15 16 17 18 18 19 20 19 15 15 15 15 17 22 23 23 23 23 24
17 16 16 16 15 14 12 11 10 10 9 9 8 8 8 9 9 9 9 10 11 11 12 13 14 15 16 16 17 18 19 18 15 14 14 15 18 23 23 23 23 23 24
16 15 15 17 16 15 13 12 11 10 9 9 8 8 7 7 7 7 8 8 9 10 10 11 12 13 14 15 16 17 18 17 14 14 14 14 20 23 23 23 24 24 24
17 16 15 17 16 15 14 13 12 11 10 10 9 8 7 7 7 6 6 7 7 8 9 10 11 12 13 14 15 15 16 15 14 13 13 14 21 23 23 23 23 24 24
16 17 16 16 15 15 15 14 13 12 11 11 10 9 8 7 6 5 4 5 6 6 7 8 9 10 11 12 13 14 13 11 13 12 12 15 21 22 22 22 23 23 24
17 17 17 17 16 15 14 15 14 13 12 12 11 10 8 6 5 4 4 4 5 5 6 7 8 8 8 9 11 12 10 10 11 10 10 16 19 20 20 21 22 22 23
22 20 19 18 18 16 14 14 13 13 13 12 10 10 8 6 5 4 5 4 4 3 4 5 5 6 6 7 8 8 8 10 9 9 10 15 18 19 19 19 20 21 22
23 21 19 20 19 18 15 14 12 12 12 12 12 11 9 7 6 5 5 4 3 2 0 1 2 4 5 6 7 7 8 8 8 8 9 13 16 17 18 19 19 20 21
22 23 21 22 20 20 17 15 14 13 13 12 13 13 11 8 8 7 6 5 4 3 1 1 2 3 4 5 6 7 8 7 8 9 10 12 15 16 17 18 19 20 21
23 23 22 23 21 20 18 15 15 15 14 14 13 14 13 10 9 8 7 6 5 4 3 3 3 3 5 5 6 7 8 9 10 10 10 12 14 15 16 17 18 19 21
24 24 23 23 24 22 19 17 16 16 15 15 15 16 15 12 10 9 8 7 7 6 5 4 4 5 6 6 7 8 10 11 11 11 12 12 13 14 15 16 18 19 21
25 24 24 23 24 23 21 19 17 16 16 15 15 17 17 15 13 11 9 9 8 7 7 6 6 6 7 7 8 10 10 11 12 13 12 12 12 12 14 15 17 19 20
23 23 24 20 23 23 21 19 17 17 17 16 16 16 18 18 15 13 11 10 10 9 8 7 7 6 6 7 7 8 10 11 13 13 13 12 12 11 12 14 16 18 20
23 23 24 24 24 23 22 19 18 17 17 17 17 17 18 19 18 15 12 11 11 10 9 8 7 7 7 8 8 8 10 11 12 12 13 13 12 12 13 14 16 18 19
22 22 23 24 23 22 19 16 14 15 16 17 17 18 19 19 20 18 14 14 13 11 9 9 9 8 7 7 8 10 10 11 11 11 12 12 12 13 14 14 14 15 17
21 23 23 24 23 20 17 16 16 16 14 15 18 21 22 21 21 20 15 15 15 11 11 11 10 10 9 7 8 9 10 11 11 9 10 11 12 13 14 14 14 14 15
23 24 24 25 24 24 19 17 14 14 13 15 17 20 23 23 23 21 20 15 15 12 13 13 12 9 8 8 6 6 6 6 8 8 9 10 11 12 13 15 15 16 16
23 25 22 25 25 25 22 16 13 12 11 14 17 16 22 25 25 23 22 19 17 15 13 14 14 14 10 9 9 7 6 6 6 7 10 10 11 10 12 14 16 17 18
22 20 22 23 24 24 23 21 22 19 20 20 17 17 20 25 26 26 24 22 19 16 15 15 15 13 13 10 9 10 11 8 7 6 7 9 11 13 13 13 15 17 19
17 18 20 22 23 24 25 25 24 24 22 18 17 19 20 21 25 26 26 23 20 17 17 16 15 15 13 13 11 9 11 11 12 11 11 11 11 11 12 13 14 16 18
14 16 18 21 23 23 25 26 27 28 26 23 22 20 18 16 18 25 25 23 21 18 18 17 16 17 15 15 13 11 11 10 10 11 13 14 14 13 14 13 14 15 17
Wind_Direction
160 157 154 144 134 123 113 101 91 83 77 71 67 64 61 59 56 54 52 50 48 46 45 43 43 42 42 41 41 40 38 34 31 29 27 25 22 21 21 20 16 15 13
152 155 153 148 139 130 120 109 98 89 82 76 71 67 64 62 57 55 53 50 48 47 45 43 43 42 41 41 40 40 39 35 31 28 26 24 21 20 20 18 16 13 11
151 153 152 150 144 136 128 117 106 96 88 82 76 71 67 63 59 56 54 51 48 47 45 43 42 40 40 39 39 39 38 35 32 29 28 24 19 18 18 16 14 11 9
154 155 154 151 149 143 136 127 116 106 96 89 81 75 71 65 60 57 54 51 48 46 44 43 41 38 37 37 36 36 36 34 31 30 29 23 17 14 14 14 11 9 7
160 158 153 155 153 149 144 136 126 117 107 98 89 81 75 69 62 59 55 51 48 46 43 42 40 37 36 34 33 33 32 30 28 30 27 21 14 9 10 10 8 7 4
165 163 160 162 160 156 151 144 136 128 118 108 98 90 82 74 67 62 57 52 49 45 42 41 39 36 35 33 31 30 28 25 23 25 22 17 10 4 6 6 5 3 1
169 169 167 168 166 163 159 154 147 138 129 120 110 100 91 82 73 67 61 55 49 45 42 40 38 36 33 31 30 28 25 21 20 20 16 13 5 1 2 2 1 360 358
171 173 173 173 172 170 167 162 157 149 142 133 123 112 102 93 83 73 66 59 52 46 42 39 38 35 31 29 28 25 22 17 13 14 11 7 1 358 357 357 356 355 354
177 177 177 176 177 176 174 170 166 160 153 146 137 126 114 103 93 80 71 66 57 48 44 40 38 34 30 27 25 21 17 13 11 8 5 2 355 353 353 352 351 350 349
184 185 183 181 178 178 178 176 172 168 163 156 147 139 128 117 108 96 87 74 64 52 47 42 37 34 28 26 22 17 11 6 6 2 360 355 350 348 348 348 347 345 343
193 193 191 188 184 183 182 176 177 175 171 165 160 153 150 150 143 136 98 86 74 58 49 42 36 29 21 22 19 11 6 2 355 352 350 346 343 341 341 342 341 339 338
197 196 195 194 190 188 185 181 182 180 176 181 177 172 175 173 167 155 126 111 94 72 58 43 32 19 7 4 6 360 356 349 344 338 337 337 334 333 333 333 332 332 331
198 196 198 197 194 191 188 187 185 184 184 189 189 186 183 180 177 184 183 174 171 173 151 30 353 5 360 356 346 343 339 333 325 320 319 325 323 323 323 323 324 325 325
200 199 198 198 197 197 194 193 192 191 191 191 192 192 190 190 195 196 203 201 205 210 231 279 321 334 331 329 325 321 317 311 305 304 302 308 311 313 314 316 317 319 319
203 202 200 199 199 198 198 198 198 199 197 196 193 196 198 198 200 200 205 206 212 215 224 247 270 290 297 302 300 299 297 294 291 289 288 290 296 301 306 310 312 314 316
206 204 201 200 201 199 200 201 202 202 201 200 199 200 201 204 204 203 207 210 214 217 225 240 256 271 279 283 283 284 285 284 280 279 280 282 281 288 296 303 307 310 311
206 204 202 201 202 202 204 206 205 204 202 203 203 203 203 206 206 206 210 211 213 214 220 232 242 254 264 270 273 276 276 275 274 275 275 275 277 278 284 294 302 305 308
207 205 203 200 203 204 206 207 207 207 206 207 206 205 206 207 207 208 211 214 211 212 219 226 235 245 251 262 270 273 272 270 269 271 270 267 270 276 281 286 294 299 303
207 205 203 201 204 205 206 208 210 210 210 210 208 208 208 208 208 209 214 214 209 213 218 223 230 239 250 259 268 273 271 268 268 268 263 263 265 271 278 284 288 291 295
208 206 205 204 206 205 206 209 212 215 215 214 213 212 209 209 209 211 214 214 210 214 217 220 227 231 245 258 269 272 270 266 264 260 260 260 263 267 273 280 285 286 288
207 207 206 205 206 203 204 207 209 214 215 216 217 216 213 211 209 211 213 213 211 216 218 221 226 233 237 243 263 271 267 256 252 252 254 258 264 268 270 275 280 284 288
207 207 207 208 206 205 207 207 211 217 221 220 219 219 216 214 212 211 214 213 211 216 219 220 221 229 234 228 243 272 280 262 234 244 252 258 265 269 270 274 277 280 284
210 209 208 208 208 207 207 207 210 215 222 219 220 219 217 215 213 213 214 215 214 214 218 217 217 222 229 226 226 239 259 270 286 263 258 257 263 267 272 275 276 278 281
215 212 212 212 211 209 206 209 209 212 219 222 220 220 218 215 215 214 215 215 216 216 219 218 217 221 227 233 227 230 241 258 266 279 266 261 264 268 272 275 277 278 278
218 214 214 215 215 212 210 213 216 223 228 229 224 223 220 216 215 215 214 214 216 217 219 218 217 219 221 229 231 231 237 245 244 252 272 278 275 271 272 275 276 276 276
220 216 215 216 219 215 214 216 219 225 227 227 225 223 220 218 215 215 214 214 215 216 218 218 218 220 222 226 231 233 236 239 242 246 260 273 279 281 279 276 274 273 274
Height
1583 1586 1587 1589 1590 1590 1590 1590 1589 1588 1587 1586 1585 1584 1583 1581 1580 1578 1577 1575 1574 1572 1570 1568 1566 1564 1562 1560 1557 1555 1553 1552 1551 1550 1550 1549 1548 1548 1546 1545 1545 1544 1543
1582 1584 1586 1588 1589 1589 1589 1589 1589 1588 1587 1586 1585 1584 1582 1581 1580 1578 1577 1575 1574 1572 1570 1568 1566 1564 1562 1560 1557 1555 1552 1551 1550 1550 1549 1548 1547 1547 1546 1545 1544 1543 1542
1580 1583 1585 1586 1587 1588 1588 1588 1588 1587 1586 1585 1584 1583 1582 1581 1579 1578 1577 1575 1574 1572 1570 1568 1566 1564 1562 1560 1557 1555 1552 1550 1549 1548 1547 1547 1546 1546 1545 1544 1543 1542 1541
1579 1582 1584 1585 1586 1587 1587 1587 1587 1587 1586 1585 1584 1583 1581 1580 1579 1578 1576 1575 1573 1572 1570 1568 1566 1564 1562 1560 1558 1555 1553 1551 1549 1547 1546 1545 1545 1545 1544 1543 1542 1541 1540
1578 1581 1582 1583 1585 1586 1586 1587 1586 1586 1585 1584 1583 1582 1581 1580 1579 1577 1576 1574 1573 1571 1569 1567 1565 1564 1562 1560 1558 1556 1554 1552 1550 1548 1547 1545 1544 1544 1543 1542 1541 1539 1538
1576 1579 1581 1582 1583 1584 1585 1585 1585 1585 1584 1583 1582 1581 1580 1579 1578 1577 1575 1574 1572 1571 1569 1567 1565 1563 1562 1560 1558 1556 1554 1552 1551 1549 1547 1546 1545 1544 1543 1541 1540 1538 1537
1575 1578 1579 1580 1582 1583 1583 1584 1584 1583 1583 1582 1581 1580 1579 1578 1577 1576 1574 1573 1571 1570 1568 1567 1565 1563 1561 1559 1558 1556 1554 1553 1551 1549 1547 1546 1544 1543 1542 1541 1539 1537 1536
1573 1575 1577 1578 1580 1581 1582 1582 1582 1582 1581 1581 1580 1579 1578 1577 1576 1575 1573 1572 1570 1569 1567 1566 1564 1562 1561 1559 1557 1555 1554 1552 1551 1549 1547 1545 1544 1542 1541 1540 1538 1536 1534
1571 1573 1575 1577 1577 1578 1579 1580 1580 1580 1580 1579 1578 1577 1576 1575 1574 1573 1572 1571 1569 1568 1566 1565 1563 1561 1560 1558 1556 1554 1553 1551 1550 1548 1546 1545 1543 1541 1540 1538 1536 1535 1533
1567 1569 1572 1574 1575 1576 1577 1578 1578 1578 1577 1577 1576 1576 1575 1574 1573 1572 1570 1569 1568 1566 1565 1563 1562 1560 1559 1557 1555 1553 1552 1550 1549 1547 1545 1543 1541 1539 1538 1537 1535 1533 1531
1563 1565 1567 1570 1571 1573 1574 1575 1575 1575 1575 1574 1574 1573 1573 1572 1571 1570 1568 1567 1566 1565 1563 1562 1561 1559 1557 1555 1554 1552 1550 1548 1547 1545 1543 1541 1539 1537 1536 1534 1533 1531 1529
1557 1559 1562 1565 1567 1569 1570 1571 1572 1572 1572 1572 1571 1571 1570 1569 1568 1567 1566 1565 1564 1563 1561 1560 1559 1557 1555 1554 1552 1550 1548 1546 1544 1542 1540 1538 1536 1535 1533 1532 1530 1529 1527
1553 1554 1557 1559 1562 1564 1566 1567 1568 1568 1568 1568 1568 1568 1567 1566 1566 1565 1564 1563 1561 1560 1559 1558 1556 1555 1553 1551 1549 1547 1545 1543 1542 1540 1537 1535 1533 1531 1530 1529 1527 1526 1524
1547 1549 1552 1554 1557 1559 1561 1562 1563 1564 1564 1565 1565 1564 1564 1563 1563 1562 1561 1560 1559 1558 1556 1555 1554 1552 1550 1549 1547 1544 1542 1540 1538 1536 1534 1531 1529 1527 1526 1525 1523 1522 1520
1542 1543 1546 1548 1551 1553 1555 1557 1558 1559 1560 1560 1560 1560 1560 1560 1559 1558 1557 1556 1556 1554 1553 1552 1551 1549 1547 1545 1543 1541 1539 1537 1535 1532 1530 1527 1525 1523 1521 1520 1518 1517 1515
1535 1538 1540 1542 1545 1548 1549 1552 1553 1554 1555 1555 1555 1556 1555 1555 1555 1554 1553 1553 1552 1551 1550 1548 1547 1545 1544 1542 1539 1537 1535 1533 1531 1528 1525 1523 1520 1518 1516 1515 1513 1511 1510
1529 1532 1534 1536 1539 1541 1544 1546 1547 1549 1550 1550 1550 1550 1550 1550 1550 1550 1549 1548 1547 1546 1545 1544 1542 1541 1539 1537 1535 1533 1531 1529 1526 1524 1521 1518 1516 1513 1511 1509 1507 1505 1504
1523 1525 1527 1530 1532 1534 1537 1539 1541 1542 1543 1544 1544 1545 1545 1545 1545 1544 1544 1543 1542 1541 1540 1539 1537 1536 1535 1533 1531 1529 1526 1524 1522 1519 1516 1514 1511 1509 1506 1503 1501 1499 1497
1516 1518 1521 1523 1526 1528 1531 1533 1535 1536 1537 1537 1538 1538 1538 1539 1539 1538 1538 1537 1537 1536 1535 1534 1532 1531 1530 1528 1526 1524 1522 1519 1517 1514 1512 1509 1506 1504 1501 1498 1495 1493 1490
1509 1511 1514 1516 1519 1522 1524 1526 1527 1527 1528 1529 1529 1530 1531 1532 1532 1532 1531 1531 1530 1529 1529 1528 1527 1525 1524 1522 1520 1518 1516 1514 1511 1509 1507 1504 1501 1499 1496 1493 1490 1487 1484
1500 1503 1506 1508 1511 1513 1514 1515 1516 1517 1519 1521 1522 1523 1524 1524 1524 1524 1524 1524 1523 1523 1522 1522 1521 1519 1518 1517 1515 1513 1510 1508 1505 1503 1501 1499 1496 1493 1490 1487 1484 1482 1478
1492 1495 1498 1500 1503 1505 1506 1508 1510 1512 1512 1513 1514 1514 1515 1515 1516 1516 1516 1516 1515 1515 1515 1514 1514 1513 1512 1511 1510 1509 1507 1505 1500 1498 1495 1492 1490 1488 1485 1482 1479 1476 1472
1485 1488 1491 1493 1496 1497 1500 1502 1502 1503 1502 1503 1502 1503 1505 1506 1507 1507 1507 1508 1507 1507 1507 1506 1506 1506 1505 1505 1503 1504 1503 1499 1497 1493 1490 1487 1484 1482 1479 1476 1473 1469 1466
1480 1483 1485 1488 1489 1491 1492 1492 1491 1491 1490 1490 1492 1493 1495 1496 1496 1497 1498 1498 1498 1498 1498 1498 1498 1498 1498 1497 1496 1495 1495 1494 1492 1487 1484 1482 1479 1476 1473 1470 1466 1463 1460
1476 1478 1479 1481 1482 1483 1483 1482 1482 1481 1481 1483 1483 1483 1483 1484 1485 1486 1487 1488 1488 1488 1489 1489 1489 1489 1489 1489 1488 1488 1487 1486 1484 1482 1477 1475 1473 1470 1467 1463 1459 1456 1452
1471 1472 1473 1473 1474 1474 1474 1473 1472 1472 1472 1472 1472 1471 1471 1471 1472 1473 1475 1476 1477 1478 1479 1479 1480 1479 1479 1480 1480 1479 1479 1478 1477 1475 1471 1467 1465 1462 1459 1456 1452 1448 1445